Terminal Aerodrome Forecast
Issued by NWS

Home | Current Version | Previous Version | Text Only | Print | Product List | Glossary On
Versions: 1 2 3 4 5 6 7 8 9 10 11 12 13 14 15 16 17 18 19 20 21 22 23 24 25 26 27 28 29 30 31 32 33 34 35 36
484
FTAK31 PANC 141129
TAFAVD
TAF
PAVD 141129Z 1412/1512 03006KT P6SM -SHRASN BKN045 OVC080
     FM141400 VRB04KT 6SM -RASN OVC030
     FM141800 VRB03KT 5SM -RA BKN015 OVC030
      AMD LTD TO CLD VIS AND WIND=

USA.gov is the U.S. government's official web portal to all federal, state and local government web resources and services.